When you browse on this site, cookies collect data to enhance your experience and personalize the content and advertising you see.
Visit our Privacy Policy to learn more. By continuing to use the site, you agree to this use of cookies and data.
  • In Österreich
  • Länderverzeichnis
  • Für 7 Tage
  • Wassertemperatur
  • Satellitenkarten
  • Wetterkarte
  • News
  • Widgets
  • user-avatar
    Anmelden

    Stündliche Wetter Rohyntsi

    Heute, 20 Mai, Montag

    Zeit Temperatur Niederschläge Wind Luftdruck Luftfeuchtigkeit
    00:00 +15°C° 0 mm 4 m/S 750 mmHg 75%
    01:00 +14°C° 0 mm 4 m/S 750 mmHg 74%
    02:00 +13°C° 0 mm 3 m/S 750 mmHg 74%
    03:00 +13°C° 0 mm 3 m/S 750 mmHg 75%
    04:00 +13°C° 0 mm 3 m/S 751 mmHg 76%
    05:00 +13°C° 0 mm 4 m/S 751 mmHg 77%
    06:00 +15°C° 0 mm 4 m/S 751 mmHg 73%
    07:00 +17°C° 0 mm 5 m/S 751 mmHg 69%
    08:00 +20°C° 0 mm 5 m/S 752 mmHg 65%
    09:00 +21°C° 0 mm 6 m/S 752 mmHg 62%
    10:00 +22°C° 0 mm 6 m/S 752 mmHg 59%
    11:00 +23°C° 0 mm 6 m/S 752 mmHg 56%
    12:00 +23°C° 0 mm 6 m/S 752 mmHg 55%
    13:00 +24°C° 0 mm 6 m/S 752 mmHg 54%
    14:00 +26°C° 0 mm 5 m/S 751 mmHg 54%
    15:00 +25°C° 0 mm 5 m/S 751 mmHg 58%
    16:00 +25°C° 0 mm 5 m/S 751 mmHg 61%
    17:00 +23°C° 0 mm 5 m/S 751 mmHg 65%
    18:00 +21°C° 0 mm 5 m/S 751 mmHg 67%
    19:00 +20°C° 0 mm 5 m/S 751 mmHg 70%
    20:00 +17°C° 0 mm 5 m/S 751 mmHg 72%
    21:00 +17°C° 0 mm 5 m/S 751 mmHg 70%
    22:00 +16°C° 0 mm 5 m/S 751 mmHg 69%
    23:00 +15°C° 0 mm 5 m/S 751 mmHg 67%

    Morgen, 21 Mai, Dienstag

    Zeit Temperatur Niederschläge Wind Luftdruck Luftfeuchtigkeit
    00:00 +15°C° 0 mm 5 m/S 751 mmHg 67%
    01:00 +15°C° 0 mm 5 m/S 751 mmHg 66%
    02:00 +14°C° 0 mm 5 m/S 751 mmHg 65%
    03:00 +14°C° 0 mm 6 m/S 751 mmHg 67%
    04:00 +14°C° 0 mm 6 m/S 751 mmHg 69%
    05:00 +13°C° 0 mm 6 m/S 751 mmHg 70%
    06:00 +15°C° 0 mm 6 m/S 751 mmHg 69%
    07:00 +16°C° 0 mm 7 m/S 751 mmHg 68%
    08:00 +17°C° 0 mm 7 m/S 751 mmHg 67%
    09:00 +20°C° 0 mm 7 m/S 751 mmHg 65%
    10:00 +21°C° 0 mm 7 m/S 750 mmHg 63%
    11:00 +22°C° 0 mm 7 m/S 750 mmHg 61%
    12:00 +22°C° 0 mm 7 m/S 750 mmHg 62%
    13:00 +22°C° 0 mm 7 m/S 750 mmHg 64%
    14:00 +21°C° 0 mm 6 m/S 749 mmHg 65%
    15:00 +20°C° 0.1 mm 6 m/S 749 mmHg 69%
    16:00 +19°C° 0.1 mm 6 m/S 749 mmHg 73%
    17:00 +17°C° 0.1 mm 5 m/S 748 mmHg 77%
    18:00 +17°C° 0.2 mm 5 m/S 748 mmHg 79%
    19:00 +16°C° 0.2 mm 5 m/S 748 mmHg 81%
    20:00 +16°C° 0.2 mm 5 m/S 748 mmHg 83%
    21:00 +15°C° 0 mm 5 m/S 748 mmHg 84%
    22:00 +15°C° 0 mm 5 m/S 747 mmHg 86%
    23:00 +15°C° 0 mm 5 m/S 747 mmHg 87%

    übermorgen, 22 Mai, Mittwoch

    Zeit Temperatur Niederschläge Wind Luftdruck Luftfeuchtigkeit
    00:00 +15°C° 0.2 mm 4 m/S 747 mmHg 90%
    01:00 +15°C° 0.2 mm 4 m/S 747 mmHg 93%
    02:00 +14°C° 0.2 mm 4 m/S 747 mmHg 96%
    03:00 +14°C° 0 mm 4 m/S 747 mmHg 97%
    04:00 +14°C° 0 mm 3 m/S 746 mmHg 97%
    05:00 +14°C° 0 mm 3 m/S 746 mmHg 98%
    06:00 +16°C° 0 mm 3 m/S 746 mmHg 93%
    07:00 +18°C° 0 mm 3 m/S 746 mmHg 88%
    08:00 +20°C° 0 mm 3 m/S 746 mmHg 83%
    09:00 +21°C° 1 mm 3 m/S 746 mmHg 78%
    10:00 +22°C° 1 mm 3 m/S 746 mmHg 72%
    11:00 +24°C° 1 mm 2 m/S 746 mmHg 67%
    12:00 +22°C° 1.5 mm 3 m/S 746 mmHg 67%
    13:00 +22°C° 1.5 mm 3 m/S 746 mmHg 67%
    14:00 +22°C° 1.5 mm 3 m/S 746 mmHg 67%
    15:00 +23°C° 0.1 mm 2 m/S 745 mmHg 67%
    16:00 +23°C° 0.1 mm 2 m/S 745 mmHg 67%
    17:00 +23°C° 0.1 mm 1 m/S 745 mmHg 67%
    18:00 +22°C° 0.6 mm 1 m/S 745 mmHg 73%
    19:00 +19°C° 0.6 mm 2 m/S 745 mmHg 80%
    20:00 +17°C° 0.6 mm 2 m/S 745 mmHg 86%
    21:00 +17°C° 0 mm 2 m/S 745 mmHg 88%
    22:00 +16°C° 0 mm 2 m/S 745 mmHg 89%
    23:00 +16°C° 0 mm 2 m/S 745 mmHg 90%

    23 Mai, Donnerstag

    Zeit Temperatur Niederschläge Wind Luftdruck Luftfeuchtigkeit
    00:00 +16°C° 0 mm 2 m/S 745 mmHg 91%
    01:00 +15°C° 0 mm 2 m/S 745 mmHg 91%
    02:00 +15°C° 0 mm 2 m/S 745 mmHg 92%
    03:00 +15°C° 0 mm 2 m/S 745 mmHg 92%
    04:00 +15°C° 0 mm 2 m/S 745 mmHg 92%
    05:00 +15°C° 0 mm 1 m/S 745 mmHg 92%
    06:00 +17°C° 0 mm 2 m/S 745 mmHg 86%
    07:00 +18°C° 0 mm 2 m/S 745 mmHg 81%
    08:00 +20°C° 0 mm 2 m/S 745 mmHg 75%
    09:00 +21°C° 0.8 mm 2 m/S 745 mmHg 71%
    10:00 +23°C° 0.8 mm 2 m/S 745 mmHg 66%
    11:00 +24°C° 0.8 mm 2 m/S 745 mmHg 62%
    12:00 +24°C° 0.1 mm 3 m/S 745 mmHg 59%
    13:00 +25°C° 0.1 mm 3 m/S 745 mmHg 57%
    14:00 +25°C° 0.1 mm 3 m/S 745 mmHg 54%
    15:00 +25°C° 0.1 mm 3 m/S 745 mmHg 58%
    16:00 +25°C° 0.1 mm 2 m/S 744 mmHg 62%
    17:00 +24°C° 0.1 mm 2 m/S 744 mmHg 66%
    18:00 +23°C° 0 mm 2 m/S 744 mmHg 70%
    19:00 +20°C° 0 mm 2 m/S 744 mmHg 75%
    20:00 +19°C° 0 mm 1 m/S 744 mmHg 79%
    21:00 +19°C° 0 mm 1 m/S 744 mmHg 80%
    22:00 +17°C° 0 mm 2 m/S 744 mmHg 81%
    23:00 +17°C° 0 mm 2 m/S 744 mmHg 81%

    24 Mai, Freitag

    Zeit Temperatur Niederschläge Wind Luftdruck Luftfeuchtigkeit
    00:00 +16°C° 0 mm 2 m/S 744 mmHg 84%
    01:00 +16°C° 0 mm 2 m/S 744 mmHg 86%
    02:00 +15°C° 0 mm 2 m/S 744 mmHg 89%
    03:00 +15°C° 0 mm 2 m/S 744 mmHg 90%
    04:00 +15°C° 0 mm 2 m/S 744 mmHg 91%
    05:00 +15°C° 0 mm 2 m/S 744 mmHg 91%
    06:00 +17°C° 0 mm 3 m/S 744 mmHg 86%
    07:00 +19°C° 0 mm 3 m/S 744 mmHg 81%
    08:00 +21°C° 0 mm 3 m/S 745 mmHg 75%
    09:00 +22°C° 0.4 mm 3 m/S 744 mmHg 71%
    10:00 +23°C° 0.4 mm 4 m/S 744 mmHg 67%
    11:00 +25°C° 0.4 mm 4 m/S 744 mmHg 63%
    12:00 +25°C° 0.2 mm 4 m/S 744 mmHg 62%
    13:00 +25°C° 0.2 mm 4 m/S 744 mmHg 61%
    14:00 +26°C° 0.2 mm 3 m/S 743 mmHg 60%
    15:00 +25°C° 0.7 mm 3 m/S 743 mmHg 66%
    16:00 +24°C° 0.7 mm 3 m/S 743 mmHg 71%
    17:00 +22°C° 0.7 mm 3 m/S 743 mmHg 77%
    18:00 +21°C° 0.5 mm 3 m/S 743 mmHg 81%
    19:00 +20°C° 0.5 mm 2 m/S 743 mmHg 85%
    20:00 +18°C° 0.5 mm 2 m/S 743 mmHg 89%
    21:00 +18°C° 0.6 mm 2 m/S 743 mmHg 90%
    22:00 +17°C° 0.6 mm 2 m/S 743 mmHg 91%
    23:00 +16°C° 0.6 mm 2 m/S 743 mmHg 92%

    25 Mai, Samstag

    Zeit Temperatur Niederschläge Wind Luftdruck Luftfeuchtigkeit
    00:00 +16°C° 0 mm 2 m/S 742 mmHg 93%
    01:00 +16°C° 0 mm 2 m/S 742 mmHg 94%
    02:00 +16°C° 0 mm 2 m/S 742 mmHg 95%
    03:00 +16°C° 0.2 mm 2 m/S 742 mmHg 95%
    04:00 +16°C° 0.2 mm 2 m/S 742 mmHg 95%
    05:00 +16°C° 0.2 mm 2 m/S 742 mmHg 96%
    06:00 +17°C° 0.2 mm 2 m/S 742 mmHg 92%
    07:00 +18°C° 0.2 mm 2 m/S 742 mmHg 88%
    08:00 +19°C° 0.2 mm 2 m/S 742 mmHg 85%
    09:00 +19°C° 0.4 mm 2 m/S 742 mmHg 82%
    10:00 +20°C° 0.4 mm 3 m/S 742 mmHg 78%
    11:00 +20°C° 0.4 mm 3 m/S 742 mmHg 75%
    12:00 +21°C° 0.4 mm 3 m/S 742 mmHg 72%
    13:00 +22°C° 0.4 mm 3 m/S 741 mmHg 70%
    14:00 +22°C° 0.4 mm 3 m/S 741 mmHg 68%
    15:00 +22°C° 0.3 mm 3 m/S 741 mmHg 70%
    16:00 +22°C° 0.3 mm 3 m/S 741 mmHg 73%
    17:00 +21°C° 0.3 mm 3 m/S 741 mmHg 76%
    18:00 +20°C° 0.3 mm 3 m/S 741 mmHg 82%
    19:00 +18°C° 0.3 mm 3 m/S 741 mmHg 88%
    20:00 +17°C° 0.3 mm 3 m/S 741 mmHg 94%
    21:00 +16°C° 0 mm 3 m/S 741 mmHg 94%
    22:00 +14°C° 0 mm 3 m/S 741 mmHg 95%
    23:00 +14°C° 0 mm 3 m/S 741 mmHg 95%
    Mehr zeigen